FDX5195 EFHK-ESSA

Flight info

Callsign FDX5195
Flight time 0h 43m
Altitude 30000
Route ADIVO Y365 POGOK DCT RUNGA N872 XILAN
Aircraft MD11/H-SDE1E2E3FGHIJ2J3J4J5M1RWXY/LB1D1

Departure

Time 2026-04-24 19:37
Airport Helsinki Vantaa Airport (EFHK)

Arrival

Time 2026-04-24 20:20
Airport Stockholm-Arlanda Airport (ESSA)
Time Latitude Longitude Altitude Speed Heading
2026-04-24 18:54 60.31188 24.97551 169 ft 0 kts 242°
2026-04-24 19:19 60.31191 24.97563 169 ft 4 kts 241°
2026-04-24 19:19 60.31203 24.97607 169 ft 4 kts 233°
2026-04-24 19:19 60.31220 24.97641 169 ft 4 kts 201°
2026-04-24 19:20 60.31243 24.97651 169 ft 4 kts 170°
2026-04-24 19:20 60.31260 24.97642 169 ft 0 kts 153°
2026-04-24 19:25 60.31259 24.97643 169 ft 1 kts 153°
2026-04-24 19:26 60.31228 24.97675 169 ft 10 kts 153°
2026-04-24 19:26 60.31162 24.97748 169 ft 4 kts 137°
2026-04-24 19:26 60.31153 24.97814 169 ft 5 kts 93°
2026-04-24 19:26 60.31161 24.97847 169 ft 4 kts 61°
2026-04-24 19:27 60.31187 24.97934 169 ft 7 kts 52°
2026-04-24 19:27 60.31206 24.97949 169 ft 3 kts
2026-04-24 19:27 60.31249 24.97939 168 ft 10 kts 346°
2026-04-24 19:27 60.31325 24.97864 168 ft 16 kts 332°
2026-04-24 19:28 60.31440 24.97744 168 ft 21 kts 333°
2026-04-24 19:28 60.31579 24.97600 168 ft 24 kts 333°
2026-04-24 19:28 60.31721 24.97455 168 ft 22 kts 333°
2026-04-24 19:28 60.31852 24.97318 168 ft 20 kts 333°
2026-04-24 19:29 60.32083 24.97080 168 ft 17 kts 333°
2026-04-24 19:29 60.32184 24.96976 168 ft 16 kts 333°
2026-04-24 19:29 60.32230 24.96909 168 ft 1 kts 301°
2026-04-24 19:30 60.32235 24.96905 168 ft 1 kts 322°
2026-04-24 19:30 60.32263 24.96884 168 ft 10 kts 339°
2026-04-24 19:30 60.32298 24.96840 168 ft 5 kts 308°
2026-04-24 19:30 60.32294 24.96742 169 ft 7 kts 240°
2026-04-24 19:31 60.32253 24.96669 169 ft 12 kts 222°
2026-04-24 19:31 60.32176 24.96507 169 ft 20 kts 227°
2026-04-24 19:31 60.32066 24.96263 169 ft 25 kts 227°
2026-04-24 19:31 60.31952 24.96011 169 ft 19 kts 227°
2026-04-24 19:32 60.31867 24.95824 169 ft 17 kts 227°
2026-04-24 19:32 60.31789 24.95649 169 ft 16 kts 227°
2026-04-24 19:32 60.31716 24.95493 169 ft 15 kts 226°
2026-04-24 19:32 60.31649 24.95346 169 ft 14 kts 228°
2026-04-24 19:33 60.31586 24.95205 169 ft 13 kts 228°
2026-04-24 19:33 60.31513 24.95044 169 ft 18 kts 227°
2026-04-24 19:33 60.31419 24.94838 169 ft 22 kts 227°
2026-04-24 19:33 60.31305 24.94590 169 ft 25 kts 227°
2026-04-24 19:34 60.31191 24.94338 169 ft 24 kts 228°
2026-04-24 19:34 60.31085 24.94100 169 ft 22 kts 228°
2026-04-24 19:34 60.31031 24.93937 169 ft 6 kts 261°
2026-04-24 19:34 60.31045 24.93842 169 ft 11 kts 299°
2026-04-24 19:35 60.31105 24.93716 168 ft 11 kts 318°
2026-04-24 19:35 60.31136 24.93678 168 ft 1 kts 353°
2026-04-24 19:35 60.31140 24.93683 168 ft 1 kts 18°
2026-04-24 19:35 60.31162 24.93712 168 ft 3 kts 33°
2026-04-24 19:36 60.31178 24.93745 169 ft 11 kts 45°
2026-04-24 19:36 60.31406 24.94246 170 ft 74 kts 47°
2026-04-24 19:36 60.31857 24.95238 170 ft 117 kts 47°
2026-04-24 19:36 60.32496 24.96660 207 ft 157 kts 47°
2026-04-24 19:37 60.33281 24.98419 677 ft 179 kts 45°
2026-04-24 19:37 60.34145 25.00315 1599 ft 174 kts 43°
2026-04-24 19:37 60.34924 25.02037 2803 ft 171 kts 43°
2026-04-24 19:37 60.35723 25.03789 3196 ft 170 kts 42°
2026-04-24 19:38 60.36577 25.05655 3594 ft 199 kts 42°
2026-04-24 19:38 60.37620 25.07920 3732 ft 241 kts 43°
2026-04-24 19:38 60.38823 25.10405 4533 ft 248 kts 36°
2026-04-24 19:38 60.40275 25.12193 5640 ft 243 kts 16°
2026-04-24 19:39 60.41929 25.12801 6671 ft 243 kts
2026-04-24 19:39 60.43627 25.12939 7618 ft 246 kts 359°
2026-04-24 19:39 60.45306 25.12432 8559 ft 245 kts 336°
2026-04-24 19:39 60.46665 25.10365 9526 ft 250 kts 310°
2026-04-24 19:40 60.47394 25.07117 10249 ft 267 kts 287°
2026-04-24 19:40 60.47388 25.03083 10375 ft 309 kts 263°
2026-04-24 19:40 60.46533 24.98810 10522 ft 346 kts 246°
2026-04-24 19:40 60.45264 24.94567 11224 ft 356 kts 243°
2026-04-24 19:41 60.43915 24.90334 12102 ft 360 kts 243°
2026-04-24 19:41 60.42542 24.86068 12967 ft 363 kts 243°
2026-04-24 19:41 60.41224 24.81689 13760 ft 365 kts 247°
2026-04-24 19:41 60.40102 24.77086 14488 ft 364 kts 252°
2026-04-24 19:42 60.39181 24.72314 15233 ft 364 kts 257°
2026-04-24 19:42 60.38406 24.67444 15949 ft 365 kts 259°
2026-04-24 19:42 60.37718 24.62502 16665 ft 366 kts 261°
2026-04-24 19:42 60.37075 24.57506 17373 ft 369 kts 261°
2026-04-24 19:43 60.36454 24.52466 18062 ft 371 kts 262°
2026-04-24 19:43 60.35838 24.47384 18630 ft 374 kts 262°
2026-04-24 19:43 60.35221 24.42262 19185 ft 377 kts 262°
2026-04-24 19:43 60.34599 24.37104 19729 ft 380 kts 262°
2026-04-24 19:44 60.33969 24.31899 20272 ft 382 kts 261°
2026-04-24 19:44 60.33342 24.26738 20809 ft 385 kts 261°
2026-04-24 19:44 60.32699 24.21465 21360 ft 388 kts 261°
2026-04-24 19:44 60.32049 24.16151 21903 ft 391 kts 261°
2026-04-24 19:45 60.31390 24.10778 22339 ft 397 kts 260°
2026-04-24 19:45 60.30722 24.05366 22897 ft 400 kts 260°
2026-04-24 19:45 60.30046 23.99891 23435 ft 403 kts 260°
2026-04-24 19:45 60.29393 23.94379 23919 ft 406 kts 261°
2026-04-24 19:46 60.28761 23.88808 24409 ft 409 kts 261°
2026-04-24 19:46 60.28140 23.83188 24904 ft 412 kts 261°
2026-04-24 19:46 60.27523 23.77528 25400 ft 415 kts 261°
2026-04-24 19:46 60.26904 23.71822 25887 ft 419 kts 261°
2026-04-24 19:47 60.26278 23.66068 26387 ft 422 kts 261°
2026-04-24 19:47 60.25645 23.60271 26869 ft 425 kts 261°
2026-04-24 19:47 60.25004 23.54433 27343 ft 429 kts 260°
2026-04-24 19:47 60.24364 23.48636 27806 ft 432 kts 260°
2026-04-24 19:48 60.23708 23.42709 28267 ft 435 kts 260°
2026-04-24 19:48 60.23044 23.36747 28720 ft 439 kts 260°
2026-04-24 19:48 60.21694 23.24713 29566 ft 441 kts 259°
2026-04-24 19:49 60.20564 23.14724 30004 ft 441 kts 259°
2026-04-24 19:49 60.19248 23.03222 30047 ft 399 kts 259°
2026-04-24 19:50 60.17481 22.87886 30065 ft 368 kts 259°
2026-04-24 19:50 60.16899 22.82848 30065 ft 367 kts 259°
2026-04-24 19:51 60.15155 22.67870 30068 ft 367 kts 259°
2026-04-24 19:52 60.13344 22.52929 30068 ft 367 kts 258°
2026-04-24 19:52 60.12128 22.43041 30068 ft 368 kts 258°
2026-04-24 19:53 60.10920 22.33080 30075 ft 368 kts 258°
2026-04-24 19:54 60.09108 22.18142 30072 ft 368 kts 258°
2026-04-24 19:54 60.07893 22.08193 30072 ft 368 kts 258°
2026-04-24 19:55 60.06877 21.99914 30071 ft 369 kts 258°
2026-04-24 19:55 60.05433 21.88246 30077 ft 369 kts 258°
2026-04-24 19:56 60.04190 21.78273 30080 ft 369 kts 257°
2026-04-24 19:56 60.02939 21.68306 30076 ft 370 kts 258°
2026-04-24 19:57 60.01678 21.58320 30076 ft 370 kts 258°
2026-04-24 19:57 60.00418 21.48409 30078 ft 370 kts 257°
2026-04-24 19:58 59.99132 21.38497 30077 ft 370 kts 257°
2026-04-24 19:58 59.97736 21.28594 30076 ft 370 kts 256°
2026-04-24 19:59 59.96337 21.18692 30079 ft 370 kts 256°
2026-04-24 19:59 59.94950 21.08803 30080 ft 370 kts 256°
2026-04-24 20:00 59.93565 20.98932 30078 ft 370 kts 257°
2026-04-24 20:00 59.92168 20.89021 30076 ft 370 kts 257°
2026-04-24 20:01 59.90772 20.79176 30086 ft 369 kts 257°
2026-04-24 20:01 59.89373 20.69366 30017 ft 378 kts 256°
2026-04-24 20:01 59.88635 20.64192 29580 ft 399 kts 256°
2026-04-24 20:02 59.88111 20.60527 29179 ft 416 kts 256°
2026-04-24 20:02 59.87025 20.52968 28304 ft 436 kts 256°
2026-04-24 20:02 59.86181 20.47148 27669 ft 439 kts 256°
2026-04-24 20:02 59.85328 20.41304 27002 ft 438 kts 256°
2026-04-24 20:03 59.84480 20.35511 26343 ft 434 kts 256°
2026-04-24 20:03 59.83637 20.29776 25693 ft 430 kts 256°
2026-04-24 20:03 59.82802 20.24104 25054 ft 425 kts 256°
2026-04-24 20:03 59.81974 20.18495 24425 ft 421 kts 256°
2026-04-24 20:04 59.81152 20.12941 23798 ft 417 kts 257°
2026-04-24 20:04 59.80336 20.07439 23127 ft 413 kts 257°
2026-04-24 20:04 59.79525 20.01996 22423 ft 410 kts 256°
2026-04-24 20:04 59.78715 19.96563 21797 ft 408 kts 256°
2026-04-24 20:05 59.77909 19.91184 21185 ft 405 kts 256°
2026-04-24 20:05 59.77109 19.85865 20585 ft 400 kts 257°
2026-04-24 20:05 59.76309 19.80604 19988 ft 397 kts 256°
2026-04-24 20:05 59.75491 19.75401 19397 ft 393 kts 256°
2026-04-24 20:06 59.74709 19.70251 18809 ft 388 kts 257°
2026-04-24 20:06 59.73973 19.65126 18222 ft 384 kts 258°
2026-04-24 20:06 59.73265 19.60049 17588 ft 380 kts 258°
2026-04-24 20:06 59.72573 19.55022 16984 ft 376 kts 258°
2026-04-24 20:07 59.72119 19.51720 16599 ft 373 kts 258°
2026-04-24 20:07 59.71213 19.45132 15838 ft 368 kts 258°
2026-04-24 20:07 59.70539 19.40257 15277 ft 365 kts 258°
2026-04-24 20:07 59.69871 19.35436 14739 ft 361 kts 258°
2026-04-24 20:08 59.69208 19.30664 14187 ft 358 kts 258°
2026-04-24 20:08 59.68547 19.25932 13640 ft 354 kts 257°
2026-04-24 20:08 59.67893 19.21255 13046 ft 352 kts 257°
2026-04-24 20:08 59.67241 19.16610 12508 ft 350 kts 257°
2026-04-24 20:09 59.66590 19.11981 12165 ft 349 kts 257°
2026-04-24 20:09 59.65941 19.07417 12030 ft 348 kts 257°
2026-04-24 20:09 59.65274 19.02806 11911 ft 350 kts 257°
2026-04-24 20:09 59.64605 18.98192 11621 ft 348 kts 256°
2026-04-24 20:10 59.63940 18.93600 11288 ft 347 kts 256°
2026-04-24 20:10 59.63283 18.89054 11135 ft 336 kts 256°
2026-04-24 20:10 59.62655 18.84732 11006 ft 317 kts 257°
2026-04-24 20:10 59.62071 18.80720 10875 ft 292 kts 257°
2026-04-24 20:11 59.61531 18.77014 10779 ft 275 kts 257°
2026-04-24 20:11 59.61004 18.73363 10390 ft 278 kts 257°
2026-04-24 20:11 59.60472 18.69683 9887 ft 279 kts 256°
2026-04-24 20:11 59.59938 18.66028 9374 ft 281 kts 256°
2026-04-24 20:12 59.59393 18.62311 8823 ft 283 kts 256°
2026-04-24 20:12 59.58847 18.58594 8323 ft 277 kts 257°
2026-04-24 20:12 59.58322 18.55027 7825 ft 266 kts 257°
2026-04-24 20:12 59.57811 18.51551 7307 ft 263 kts 257°
2026-04-24 20:13 59.57306 18.48115 6843 ft 258 kts 257°
2026-04-24 20:13 59.56989 18.44723 6356 ft 246 kts 275°
2026-04-24 20:13 59.57451 18.41621 5837 ft 232 kts 304°
2026-04-24 20:13 59.58617 18.39554 5360 ft 223 kts 333°
2026-04-24 20:14 59.60088 18.38685 4892 ft 222 kts 344°
2026-04-24 20:14 59.61595 18.38006 4344 ft 220 kts 343°
2026-04-24 20:14 59.63068 18.37186 3851 ft 221 kts 339°
2026-04-24 20:14 59.64484 18.36164 3811 ft 209 kts 335°
2026-04-24 20:15 59.65781 18.35067 3813 ft 201 kts 332°
2026-04-24 20:15 59.67021 18.33894 3637 ft 194 kts 330°
2026-04-24 20:15 59.68215 18.32670 3536 ft 197 kts 329°
2026-04-24 20:15 59.69318 18.31092 3489 ft 194 kts 304°
2026-04-24 20:16 59.69696 18.28655 3130 ft 187 kts 268°
2026-04-24 20:16 59.69530 18.26064 2797 ft 194 kts 261°
2026-04-24 20:16 59.69297 18.23483 2535 ft 186 kts 260°
2026-04-24 20:16 59.69070 18.21094 2512 ft 174 kts 262°
2026-04-24 20:17 59.68899 18.18742 2296 ft 171 kts 262°
2026-04-24 20:17 59.68462 18.14197 1818 ft 155 kts 256°
2026-04-24 20:17 59.68218 18.12302 1551 ft 131 kts 255°
2026-04-24 20:18 59.68074 18.11179 1417 ft 124 kts 255°
2026-04-24 20:18 59.67795 18.08996 1256 ft 125 kts 255°
2026-04-24 20:18 59.67584 18.07340 1120 ft 126 kts 255°
2026-04-24 20:18 59.67368 18.05642 941 ft 127 kts 253°
2026-04-24 20:19 59.67147 18.03904 751 ft 131 kts 253°
2026-04-24 20:19 59.66923 18.02131 558 ft 134 kts 253°
2026-04-24 20:19 59.66717 18.00361 404 ft 136 kts 251°
2026-04-24 20:19 59.66478 17.98557 228 ft 134 kts 251°
2026-04-24 20:20 59.66247 17.96822 146 ft 116 kts 256°
2026-04-24 20:20 59.66104 17.95659 146 ft 58 kts 256°
2026-04-24 20:20 59.66024 17.95049 142 ft 38 kts 256°
2026-04-24 20:20 59.65936 17.94677 145 ft 22 kts 230°
2026-04-24 20:21 59.65856 17.94500 145 ft 15 kts 226°
2026-04-24 20:21 59.65805 17.94396 145 ft 9 kts 226°
2026-04-24 20:21 59.65789 17.94363 145 ft 0 kts 226°
2026-04-24 20:21 59.65767 17.94318 145 ft 9 kts 226°
2026-04-24 20:22 59.65757 17.94296 145 ft 4 kts 227°
2026-04-24 20:22 59.65723 17.94226 145 ft 10 kts 225°
2026-04-24 20:22 59.65661 17.94089 145 ft 16 kts 232°
2026-04-24 20:22 59.65608 17.93867 145 ft 20 kts 249°
2026-04-24 20:23 59.65570 17.93610 145 ft 19 kts 256°
2026-04-24 20:23 59.65538 17.93359 145 ft 18 kts 256°
2026-04-24 20:23 59.65508 17.93126 145 ft 17 kts 256°
2026-04-24 20:23 59.65476 17.92914 145 ft 15 kts 250°
2026-04-24 20:24 59.65449 17.92790 145 ft 14 kts 243°
2026-04-24 20:24 59.65361 17.92549 145 ft 17 kts 221°
2026-04-24 20:24 59.65267 17.92438 145 ft 15 kts 199°
2026-04-24 20:24 59.65178 17.92378 145 ft 13 kts 194°
2026-04-24 20:25 59.65095 17.92345 145 ft 12 kts 191°
2026-04-24 20:25 59.65018 17.92317 145 ft 12 kts 190°
2026-04-24 20:25 59.64926 17.92283 145 ft 14 kts 191°
2026-04-24 20:25 59.64833 17.92248 145 ft 13 kts 191°
2026-04-24 20:26 59.64747 17.92218 145 ft 11 kts 190°
2026-04-24 20:26 59.64685 17.92196 145 ft 5 kts 190°
2026-04-24 20:26 59.64651 17.92184 145 ft 5 kts 190°
2026-04-24 20:26 59.64621 17.92174 145 ft 4 kts 190°
2026-04-24 20:27 59.64594 17.92164 145 ft 4 kts 190°
2026-04-24 20:27 59.64567 17.92155 145 ft 6 kts 191°
2026-04-24 20:27 59.64502 17.92131 145 ft 12 kts 191°
2026-04-24 20:27 59.64420 17.92106 145 ft 10 kts 183°
2026-04-24 20:28 59.64394 17.92123 145 ft 4 kts 149°
2026-04-24 20:28 59.64374 17.92178 145 ft 7 kts 122°
2026-04-24 20:28 59.64348 17.92234 145 ft 2 kts 156°
2026-04-24 20:28 59.64303 17.92241 145 ft 14 kts 179°
2026-04-24 20:29 59.64267 17.92263 145 ft 7 kts 146°
2026-04-24 20:29 59.64211 17.92448 145 ft 16 kts 116°
2026-04-24 20:29 59.64155 17.92668 145 ft 19 kts 117°
2026-04-24 20:29 59.64115 17.92785 145 ft 1 kts 154°
2026-04-24 20:30 59.64084 17.92788 145 ft 8 kts 180°
2026-04-24 20:30 59.64024 17.92835 145 ft 11 kts 143°
2026-04-24 20:30 59.64004 17.92896 145 ft 5 kts 115°
2026-04-24 20:30 59.63981 17.92991 145 ft 10 kts 115°
2026-04-24 20:31 59.63960 17.93066 145 ft 1 kts 130°
2026-04-24 20:31 59.63950 17.93078 145 ft 2 kts 151°
2026-04-24 20:31 59.63940 17.93078 145 ft 3 kts 180°
2026-04-24 20:31 59.63911 17.93061 145 ft 4 kts 203°
2026-04-24 20:32 59.63890 17.93042 145 ft 3 kts 205°
2026-04-24 20:32 59.63881 17.93035 145 ft 1 kts 204°
2026-04-24 20:32 59.63878 17.93032 145 ft 0 kts 206°